Location: Topeka
(39.0480°N, 95.6780°W)
Time: 19:27:26
(UTC-06:00)

ISS - Visible Passes

Search period start: 18 December 2018 00:00
Search period end: 28 December 2018 00:00
Orbit: 401 x 408 km, 51.6° (Epoch: 19 December)

Date Brightness Start Highest point End Pass type
(mag) Time Alt. Az. Time Alt. Az. Time Alt. Az.
21 Dec -0.9 07:03:07 10° S 07:05:46 23° SE 07:08:27 10° ENE visible
22 Dec -0.4 06:12:30 10° SSE 06:13:46 12° SE 06:15:04 10° ESE visible
23 Dec -3.2 06:54:25 10° SW 06:57:39 61° SE 07:00:54 10° ENE visible
24 Dec -1.8 06:02:37 10° SSW 06:05:31 29° SE 06:08:26 10° ENE visible
25 Dec -0.9 05:13:02 15° SE 05:13:27 15° SE 05:15:27 10° E visible
25 Dec -3.7 06:46:25 10° WSW 06:49:38 52° NW 06:52:51 10° NE visible
26 Dec -3.8 05:56:52 61° SSW 05:57:22 79° SE 06:00:39 10° NE visible
27 Dec -0.8 05:07:33 15° ENE 05:07:33 15° ENE 05:08:14 10° ENE visible
27 Dec -2.6 06:40:15 19° WNW 06:41:43 25° NNW 06:44:31 10° NNE visible
